Flag for Nicaragua Weather past 2 weeks in Managua, Nicaragua

Now
82 °F

Passing clouds.


Feels Like: 86 °F
Forecast: 76 / 88 °F
Wind: 7 mph from Northeast

Location: Managua A. C. Sandino

Current Time: Dec 25, 2014 at 6:59:53 PM

Latest Report: Dec 25, 2014 at 6:00 PM


Visibility: N/A

Pressure: 29.83 "Hg

Humidity: 66%

Dew point: 70 °F

Location of ManaguaLocation

Historic Weather in Managua — Graph

°F

Managua temperature yesterday

Maximum temperature yesterday: 91 °F (at 12:00 PM)
Minimum temperature yesterday: 75 °F (at 2:00 AM)
Average temperature yesterday: 83 °F

Past Weeks' High & Low Weather Summary

 TemperatureHumidityPressure
High91 °F (Dec 17, 3:00 PM)94% (Dec 12, 4:00 AM)30.01 "Hg (Dec 12, 4:00 AM)
Low66 °F (Dec 12, 4:00 AM)43% (Dec 21, 3:00 PM)29.68 "Hg (Dec 23, 3:00 PM)
Average80 °F68%29.87 "Hg
* Reported Dec 10 6:00 PM — Dec 25 6:00 PM, Managua, Weather by CustomWeather, © 2014

Note: Actual official high and low records may vary slightly from our data, if they occured in-between our weather recording intervals... More about our weather records

Advertising

Managua weather history for previous 24 hours

 ConditionsComfort  
Time TempWeatherWind HumidityBarometerVisibility
6:00 PM
Dec 25
82 °FPassing clouds.7 mph66%29.83 "HgN/A
5:00 PM86 °FPassing clouds.16 mph55%29.80 "HgN/A
4:00 PM86 °FPassing clouds.16 mph62%29.80 "Hg6 mi
3:00 PM86 °FScattered clouds.18 mph59%29.80 "Hg6 mi
2:00 PM91 °FScattered clouds.18 mph46%29.80 "HgN/A
12:00 PM88 °FScattered clouds.14 mph55%29.86 "HgN/A
11:00 AM90 °FPassing clouds.16 mph55%29.89 "HgN/A
10:00 AM84 °FPartly sunny.14 mph62%29.92 "HgN/A
9:00 AM84 °FScattered clouds.18 mph62%29.92 "HgN/A
8:00 AM82 °FScattered clouds.9 mph70%29.89 "HgN/A
7:00 AM79 °FPassing clouds.7 mph79%29.86 "HgN/A
6:00 AM77 °FPassing clouds.12 mph89%29.86 "HgN/A
5:00 AM79 °FPassing clouds.12 mph84%29.83 "HgN/A
4:00 AM79 °FPassing clouds.9 mph84%29.80 "HgN/A
3:00 AM79 °FPassing clouds.12 mph84%29.80 "HgN/A
2:00 AM81 °FPassing clouds.12 mph79%29.83 "HgN/A
1:00 AM79 °FPassing clouds.7 mph84%29.83 "HgN/A
12:00 AM81 °FPassing clouds.7 mph84%29.83 "HgN/A
11:00 PM
Dec 24
81 °FPassing clouds.7 mph74%29.86 "HgN/A
10:00 PM81 °FPassing clouds.5 mph74%29.86 "HgN/A
9:00 PM82 °FPassing clouds.5 mph66%29.83 "HgN/A
8:00 PM82 °FPassing clouds.5 mph70%29.83 "HgN/A
7:00 PM84 °FPassing clouds.5 mph66%29.80 "HgN/A
6:00 PM86 °FPassing clouds.7 mph62%29.77 "HgN/A
Weather by CustomWeather, © 2014

See weather overviewHow to use our weather pages